Weather History for KMCK - January, 2012

Change the Weather History Date:

Monday, January 9, 2012

  Actual Average Record
Temperature  
Mean Temperature 37 °F 27 °F  
Max Temperature 54 °F 40 °F 71 °F (1933)
Min Temperature 20 °F 14 °F -13 °F (1937)
Degree Days  
Heating Degree Days 28    
Moisture  
Dew Point 22 °F    
Average Humidity 66    
Maximum Humidity 89    
Minimum Humidity 34    
Precipitation  
Precipitation 0.00 in 0.02 in 0.79 in (1993)
Month to date precipitation 0.00 0.16  
Year to date precipitation 0.00 0.16  
Sea Level Pressure  
Sea Level Pressure 30.22 in    
Wind  
Wind Speed 9 mph (West)    
Max Wind Speed 13 mph    
Max Gust Speed -    
Visibility 10 miles    
Events      
T = Trace of Precipitation, MM = Missing Value Source: NWS Daily Summary

Daily Weather History Graph

Daily Weather History Graph

Search for Another Location

Airport or City:

Trip Planner

Search our weather history database for the weather conditions in past years. The results will help you decide how hot, cold, wet, or windy it might be!

Date:

Astronomy

Jan. 09, 2012 Rise Set
Actual Time 8:04 AM CST 5:34 PM CST
Civil Twilight 7:34 AM CST 6:04 PM CST
Nautical Twilight 7:00 AM CST 6:38 PM CST
Astronomical Twilight 6:27 AM CST 7:11 PM CST
Moon 6:22 PM CST (1/9) 8:06 AM CST (1/9)
Length of Visible Light 10h 29m
Length of Day
9h 29m
Full, 100% of the Moon is Illuminated
Jan 9
Full
Jan 16
Last Quarter
Jan 23
New
Jan 30
First Quarter
Feb 7
Full

Hourly Weather History & Observations

Time (CST) Temp. Windchill Dew Point Humidity Pressure Visibility Wind Dir Wind Speed Gust Speed Precip Events Conditions
12:53 AM 21.9 °F 13.4 °F 19.0 °F 89% 30.30 in 10.0 mi WSW 6.9 mph - N/A   Clear
1:53 AM 21.9 °F 11.7 °F 19.0 °F 89% 30.28 in 10.0 mi West 9.2 mph - N/A   Clear
2:53 AM 21.0 °F 9.9 °F 18.0 °F 88% 30.28 in 10.0 mi WSW 10.4 mph - N/A   Clear
3:53 AM 21.0 °F 9.9 °F 18.0 °F 88% 30.27 in 10.0 mi West 10.4 mph - N/A   Clear
4:53 AM 21.0 °F 10.6 °F 18.0 °F 88% 30.27 in 10.0 mi WSW 9.2 mph - N/A   Clear
5:53 AM 21.9 °F 10.4 °F 17.1 °F 82% 30.28 in 10.0 mi West 11.5 mph - N/A   Clear
6:53 AM 21.0 °F 10.6 °F 16.0 °F 81% 30.29 in 10.0 mi West 9.2 mph - N/A   Clear
7:53 AM 19.9 °F 7.3 °F 16.0 °F 85% 30.30 in 10.0 mi WSW 12.7 mph - N/A   Clear
8:53 AM 24.1 °F - 18.0 °F 77% 30.29 in - North - - N/A   Unknown
9:53 AM 28.4 °F 19.1 °F 19.4 °F 69% 30.21 in 10.0 mi West 10.4 mph - N/A   Clear
10:53 AM 36.0 °F 28.5 °F 26.1 °F 67% 30.28 in 10.0 mi WNW 10.4 mph - N/A   Clear
11:53 AM 45.0 °F 38.9 °F 26.1 °F 48% 30.23 in 10.0 mi NW 12.7 mph - N/A   Clear
12:53 PM 50.0 °F - 25.0 °F 38% 30.20 in 10.0 mi NNW 11.5 mph - N/A   Clear
1:53 PM 53.1 °F - 25.0 °F 34% 30.17 in 10.0 mi NNW 6.9 mph - N/A   Clear
2:53 PM 54.0 °F - 26.1 °F 34% 30.15 in 10.0 mi NW 9.2 mph - N/A   Clear
3:53 PM 54.0 °F - 26.1 °F 34% 30.16 in 10.0 mi NW 9.2 mph - N/A   Clear
4:53 PM 50.0 °F - 26.1 °F 39% 30.17 in 10.0 mi WNW 4.6 mph - N/A   Clear
5:53 PM 48.9 °F - 26.1 °F 41% 30.17 in 10.0 mi West 3.5 mph - N/A   Clear
6:53 PM 44.1 °F 40.1 °F 26.1 °F 49% 30.19 in 10.0 mi SW 6.9 mph - N/A   Clear
7:53 PM 34.0 °F 27.2 °F 24.1 °F 67% 30.21 in 10.0 mi WSW 8.1 mph - N/A   Clear
8:53 PM 32.0 °F 24.2 °F 24.1 °F 73% 30.20 in 10.0 mi WSW 9.2 mph - N/A   Clear
9:53 PM 30.0 °F 21.7 °F 23.0 °F 75% 30.19 in 10.0 mi West 9.2 mph - N/A   Clear
10:53 PM 28.9 °F 20.4 °F 23.0 °F 78% 30.16 in 10.0 mi WSW 9.2 mph - N/A   Clear
11:53 PM 28.0 °F 20.8 °F 23.0 °F 81% 30.13 in 10.0 mi West 6.9 mph - N/A   Unknown